This is the latest recevied weather packets stored in our database for station/object KE6YLF. If no packets are shown the sender has not sent any weather packets the latest 10 day(s).
| Time | Temp. | Humidity | Pressure | Rain* | Wind** | Luminosity | Snow |
|---|---|---|---|---|---|---|---|
| 1778338805 | 31.11° C | 19% | 1075.3 hPa | 0 mm | - | - | - |
| 1778338500 | 30° C | 20% | 1075.3 hPa | 0 mm | - | - | - |
| 1778338195 | 29.44° C | 20% | 1075.2 hPa | 0 mm | - | - | - |
| 1778337893 | 28.89° C | 20% | 1075.3 hPa | 0 mm | - | - | - |
| 1778337590 | 29.44° C | 19% | 1075.2 hPa | 0 mm | - | - | - |
| 1778337287 | 30° C | 18% | 1075.2 hPa | 0 mm | - | - | - |
| 1778336983 | 28.89° C | 19% | 1075.1 hPa | 0 mm | - | - | - |
| 1778336680 | 28.89° C | 20% | 1075.2 hPa | 0 mm | - | - | - |
| 1778336375 | 27.78° C | 20% | 1075.2 hPa | 0 mm | - | - | - |
| 1778336072 | 26.67° C | 21% | 1075 hPa | 0 mm | - | - | - |
| 1778335769 | 26.67° C | 21% | 1075.2 hPa | 0 mm | - | - | - |
| 1778335465 | 26.11° C | 21% | 1075.1 hPa | 0 mm | - | - | - |
| 1778335164 | 26.67° C | 21% | 1075 hPa | 0 mm | - | - | - |
| 1778334861 | 27.78° C | 21% | 1075 hPa | 0 mm | - | - | - |
| 1778334558 | 25.56° C | 23% | 1074.7 hPa | 0 mm | - | - | - |
| 1778334256 | 25° C | 24% | 1074.7 hPa | 0 mm | - | - | - |
| 1778333953 | 24.44° C | 24% | 1074.5 hPa | 0 mm | - | - | - |
| 1778333649 | 23.89° C | 24% | 1074.4 hPa | 0 mm | - | - | - |
| 1778333348 | 23.89° C | 24% | 1074.5 hPa | 0 mm | - | - | - |
| 1778333046 | 23.33° C | 25% | 1074.3 hPa | 0 mm | - | - | - |
| 1778332742 | 22.78° C | 25% | 1074.4 hPa | 0 mm | - | - | - |
| 1778332439 | 22.78° C | 25% | 1074.5 hPa | 0 mm | - | - | - |
| 1778332136 | 22.22° C | 25% | 1074.4 hPa | 0 mm | - | - | - |
| 1778331831 | 22.22° C | 25% | 1074.2 hPa | 0 mm | - | - | - |
| 1778331529 | 21.67° C | 25% | 1074.3 hPa | 0 mm | - | - | - |
* Rain latest hour (hover to see other rain measurements)
** Current wind speed in m/s (hover to see current wind gust speed)